Weather History for Alexandria, MN

Change the Weather History Date:

Wednesday, March 20, 2013

  Actual Average Record
Temperature  
Mean Temperature 4 °F -  
Max Temperature 14 °F 36 °F 58 °F (1987)
Min Temperature -5 °F 21 °F -9 °F (1965)
Degree Days  
Heating Degree Days 60    
Moisture  
Dew Point -3 °F    
Average Humidity 69    
Maximum Humidity 83    
Minimum Humidity 56    
Precipitation  
Precipitation 0.00 in - - ()
Sea Level Pressure  
Sea Level Pressure 30.30 in    
Wind  
Wind Speed 14 mph (NW)    
Max Wind Speed 18 mph    
Max Gust Speed -    
Visibility 10 miles    
Events      
Averages and records for this station are not official NWS values.
T = Trace of Precipitation, MM = Missing Value Source: NWS Daily Summary

Daily Weather History Graph

Daily Weather History Graph

Search for Another Location

Airport:

Trip Planner

Search our weather history database for the weather conditions in past years. The results will help you decide how hot, cold, wet, or windy it might be!

Date:

Astronomy

Mar. 20, 2013 Rise Set
Actual Time 7:24 AM CDT 7:34 PM CDT
Civil Twilight 6:54 AM CDT 8:04 PM CDT
Nautical Twilight 6:19 AM CDT 8:39 PM CDT
Astronomical Twilight 5:43 AM CDT 9:15 PM CDT
Moon 12:53 PM CDT (3/20) 3:21 AM CDT (3/20)
Length of Visible Light 13h 09m
Length of Day
12h 10m
First Quarter, 59% of the Moon is Illuminated
Mar 20
First Quarter
Mar 27
Full
Apr 2
Last Quarter
Apr 10
New
Apr 18
First Quarter

Hourly Weather History & Observations

Time (CDT) Temp. Windchill Dew Point Humidity Pressure Visibility Wind Dir Wind Speed Gust Speed Precip Events Conditions
12:53 AM 3.9 °F -15.0 °F -2.9 °F 73% 30.32 in 10.0 mi NW 16.1 mph - N/A   Clear
1:53 AM 3.9 °F -15.0 °F -4.0 °F 70% 30.33 in 10.0 mi NW 16.1 mph - N/A   Clear
2:53 AM 1.9 °F -15.5 °F -4.0 °F 76% 30.33 in 10.0 mi WNW 12.7 mph - N/A   Clear
3:53 AM -0.9 °F -17.4 °F -6.0 °F 79% 30.35 in 10.0 mi WNW 10.4 mph - N/A   Clear
4:22 AM -0.4 °F -16.7 °F -5.8 °F 78% 30.23 in 10.0 mi WNW 10.4 mph - N/A   Partly Cloudy
4:53 AM -0.0 °F -17.1 °F -5.1 °F 79% 30.35 in 10.0 mi WNW 11.5 mph - N/A   Clear
5:53 AM -0.9 °F -19.1 °F -6.0 °F 79% 30.34 in 10.0 mi WNW 12.7 mph - N/A   Clear
6:53 AM -0.9 °F -18.3 °F -7.1 °F 75% 30.35 in 10.0 mi WNW 11.5 mph - N/A   Clear
7:53 AM -5.1 °F -23.5 °F -9.0 °F 83% 30.37 in 10.0 mi West 11.5 mph - N/A   Clear
8:53 AM -2.0 °F -17.7 °F -8.0 °F 76% 30.36 in 10.0 mi WNW 9.2 mph - N/A   Clear
9:53 AM 3.0 °F -15.5 °F -6.0 °F 66% 30.35 in 10.0 mi NW 15.0 mph - N/A   Clear
10:53 AM 6.1 °F -12.2 °F -4.0 °F 63% 30.33 in 10.0 mi NW 16.1 mph - N/A   Clear
11:53 AM 9.0 °F -7.9 °F -2.0 °F 61% 30.32 in 10.0 mi WNW 15.0 mph - N/A   Clear
12:53 PM 10.9 °F -5.9 °F -0.0 °F 61% 30.30 in 10.0 mi NW 16.1 mph - N/A   Clear
1:53 PM 12.9 °F -2.8 °F 1.9 °F 62% 30.28 in 10.0 mi WNW 15.0 mph - N/A   Clear
2:53 PM 14.0 °F -2.0 °F 1.9 °F 59% 30.27 in 10.0 mi NW 16.1 mph - N/A   Clear
3:53 PM 12.9 °F -4.4 °F 3.0 °F 65% 30.26 in 10.0 mi WNW 18.4 mph - N/A   Clear
4:53 PM 14.0 °F -2.0 °F 1.0 °F 56% 30.25 in 10.0 mi NW 16.1 mph - N/A   Clear
5:53 PM 12.9 °F -4.4 °F -0.0 °F 56% 30.24 in 10.0 mi NW 18.4 mph - N/A   Clear
6:53 PM 10.9 °F -4.1 °F -0.0 °F 61% 30.24 in 10.0 mi NW 12.7 mph - N/A   Clear
7:53 PM 9.0 °F -7.3 °F -0.9 °F 64% 30.25 in 10.0 mi NW 13.8 mph - N/A   Clear
8:53 PM 7.0 °F -5.7 °F -2.0 °F 67% 30.26 in 10.0 mi NW 8.1 mph - N/A   Clear
9:53 PM 5.0 °F -5.6 °F -4.0 °F 66% 30.25 in 10.0 mi NW 5.8 mph - N/A   Clear
10:53 PM 1.9 °F -11.8 °F -5.1 °F 72% 30.24 in 10.0 mi NNW 8.1 mph - N/A   Clear
11:53 PM 1.9 °F -10.6 °F -5.1 °F 72% 30.23 in 10.0 mi North 6.9 mph - N/A   Clear